Time,TemperatureF,DewpointF,PressureIn,WindDirection,WindDirectionDegrees,WindSpeedMPH,WindSpeedGustMPH,Humidity,HourlyPrecipIn,Conditions,Clouds,dailyrainin,SoftwareType,DateUTC
2013-12-24 00:00:00,32.3,21.9,30.25,NNW,332,0.0,5.0,65,0.00,,---,0.06,VWS V14.01,2013-12-24 05:00:00,
2013-12-24 00:01:00,32.2,21.8,30.25,NNW,331,0.0,1.0,65,0.00,,---,0.00,VWS V14.01,2013-12-24 05:01:00,
2013-12-24 00:02:00,32.1,21.7,30.25,NNW,330,0.0,1.0,65,0.00,,---,0.00,VWS V14.01,2013-12-24 05:02:00,
2013-12-24 00:07:00,31.8,21.8,30.25,NW,319,1.0,2.0,66,0.00,,---,0.00,VWS V14.01,2013-12-24 05:07:00,
2013-12-24 00:12:00,31.7,21.3,30.25,NNW,328,0.0,4.0,65,0.00,,---,0.00,VWS V14.01,2013-12-24 05:12:00,
2013-12-24 00:17:00,31.7,21.3,30.25,North,349,0.0,5.0,65,0.00,,---,0.00,VWS V14.01,2013-12-24 05:17:00,
2013-12-24 00:22:00,31.6,20.8,30.25,NNW,344,1.0,5.0,64,0.00,,---,0.00,VWS V14.01,2013-12-24 05:22:00,
2013-12-24 00:27:00,31.5,20.7,30.25,NW,314,0.0,5.0,64,0.00,,---,0.00,VWS V14.01,2013-12-24 05:27:00,
2013-12-24 00:30:00,31.5,20.7,30.25,WNW,303,0.0,5.0,64,0.00,,---,0.00,VWS V14.01,2013-12-24 05:30:00,
2013-12-24 00:32:00,31.3,20.5,30.25,WNW,286,0.0,1.0,64,0.00,,---,0.00,VWS V14.01,2013-12-24 05:32:00,
2013-12-24 00:37:00,31.2,20.5,30.25,NW,317,0.0,2.0,64,0.00,,---,0.00,VWS V14.01,2013-12-24 05:37:00,
2013-12-24 00:42:00,31.0,20.3,30.25,NW,326,3.0,5.0,64,0.00,,---,0.00,VWS V14.01,2013-12-24 05:42:00,
2013-12-24 00:47:00,31.3,20.2,30.25,NNW,329,1.0,5.0,63,0.00,,---,0.00,VWS V14.01,2013-12-24 05:47:00,
2013-12-24 00:52:00,31.3,20.2,30.25,NW,316,1.0,5.0,63,0.00,,---,0.00,VWS V14.01,2013-12-24 05:52:00,
2013-12-24 00:57:00,31.3,20.2,30.25,WNW,302,0.0,5.0,63,0.00,,---,0.00,VWS V14.01,2013-12-24 05:57:00,
2013-12-24 01:00:00,31.2,20.1,30.25,NW,326,1.0,5.0,63,0.00,,---,0.00,VWS V14.01,2013-12-24 06:00:00,
2013-12-24 01:02:00,31.2,19.7,30.25,NW,310,1.0,1.0,62,0.00,,---,0.00,VWS V14.01,2013-12-24 06:02:00,
2013-12-24 01:07:00,31.2,19.7,30.25,NNW,330,1.0,3.0,62,0.00,,---,0.00,VWS V14.01,2013-12-24 06:07:00,
2013-12-24 01:12:00,31.0,19.9,30.25,WNW,302,0.0,3.0,63,0.00,,---,0.00,VWS V14.01,2013-12-24 06:12:00,
2013-12-24 01:17:00,30.9,19.4,30.25,West,280,0.0,3.0,62,0.00,,---,0.00,VWS V14.01,2013-12-24 06:17:00,
2013-12-24 01:22:00,30.9,19.0,30.25,West,281,1.0,4.0,61,0.00,,---,0.00,VWS V14.01,2013-12-24 06:22:00,
2013-12-24 01:27:00,31.0,19.1,30.24,NW,311,2.0,4.0,61,0.00,,---,0.00,VWS V14.01,2013-12-24 06:27:00,
2013-12-24 01:30:00,31.0,19.5,30.24,NW,326,1.0,4.0,62,0.00,,---,0.00,VWS V14.01,2013-12-24 06:30:00,
2013-12-24 01:32:00,31.0,19.1,30.24,NW,306,0.0,3.0,61,0.00,,---,0.00,VWS V14.01,2013-12-24 06:32:00,
2013-12-24 01:37:00,31.0,19.1,30.24,WNW,301,0.0,4.0,61,0.00,,---,0.00,VWS V14.01,2013-12-24 06:37:00,
2013-12-24 01:42:00,31.1,18.9,30.24,NW,321,1.0,4.0,60,0.00,,---,0.00,VWS V14.01,2013-12-24 06:42:00,
2013-12-24 01:47:00,31.4,18.7,30.24,NW,326,4.0,5.0,59,0.00,,---,0.00,VWS V14.01,2013-12-24 06:47:00,
2013-12-24 01:52:00,31.7,19.0,30.24,WNW,284,0.0,5.0,59,0.00,,---,0.00,VWS V14.01,2013-12-24 06:52:00,
2013-12-24 01:57:00,31.5,19.6,30.24,NW,320,0.0,5.0,61,0.00,,---,0.00,VWS V14.01,2013-12-24 06:57:00,
2013-12-24 02:00:00,31.4,19.5,30.25,North,9,0.0,5.0,61,0.00,,---,0.00,VWS V14.01,2013-12-24 07:00:00,
2013-12-24 02:02:00,31.3,19.8,30.25,NW,326,0.0,1.0,62,0.00,,---,0.00,VWS V14.01,2013-12-24 07:02:00,
2013-12-24 02:07:00,31.1,19.6,30.25,South,171,0.0,1.0,62,0.00,,---,0.00,VWS V14.01,2013-12-24 07:07:00,
2013-12-24 02:12:00,31.1,19.6,30.25,WSW,256,0.0,1.0,62,0.00,,---,0.00,VWS V14.01,2013-12-24 07:12:00,
2013-12-24 02:17:00,31.0,19.9,30.25,NW,307,0.0,1.0,63,0.00,,---,0.00,VWS V14.01,2013-12-24 07:17:00,
2013-12-24 02:22:00,30.9,20.2,30.25,South,182,0.0,1.0,64,0.00,,---,0.00,VWS V14.01,2013-12-24 07:22:00,
2013-12-24 02:27:00,30.9,19.8,30.25,WNW,283,0.0,1.0,63,0.00,,---,0.00,VWS V14.01,2013-12-24 07:27:00,
2013-12-24 02:30:00,31.0,19.9,30.25,WNW,297,0.0,1.0,63,0.00,,---,0.00,VWS V14.01,2013-12-24 07:30:00,
2013-12-24 02:32:00,31.0,19.9,30.25,WNW,297,0.0,0.0,63,0.00,,---,0.00,VWS V14.01,2013-12-24 07:32:00,
2013-12-24 02:37:00,31.2,20.1,30.25,WNW,297,0.0,0.0,63,0.00,,---,0.00,VWS V14.01,2013-12-24 07:37:00,
2013-12-24 02:42:00,31.2,20.1,30.25,WNW,300,0.0,0.0,63,0.00,,---,0.00,VWS V14.01,2013-12-24 07:42:00,
2013-12-24 02:47:00,31.2,20.5,30.25,NW,324,0.0,1.0,64,0.00,,---,0.00,VWS V14.01,2013-12-24 07:47:00,
2013-12-24 02:52:00,31.2,20.1,30.24,NW,323,0.0,1.0,63,0.00,,---,0.00,VWS V14.01,2013-12-24 07:52:00,
2013-12-24 02:57:00,31.0,20.3,30.25,NW,324,0.0,1.0,64,0.00,,---,0.00,VWS V14.01,2013-12-24 07:57:00,
2013-12-24 03:00:00,30.9,20.2,30.24,NW,324,0.0,1.0,64,0.00,,---,0.00,VWS V14.01,2013-12-24 08:00:00,
2013-12-24 03:02:00,30.8,20.4,30.25,NW,323,0.0,0.0,65,0.00,,---,0.00,VWS V14.01,2013-12-24 08:02:00,
2013-12-24 03:07:00,30.6,21.0,30.24,NW,324,0.0,0.0,67,0.00,,---,0.00,VWS V14.01,2013-12-24 08:07:00,
2013-12-24 03:12:00,30.3,21.4,30.24,NW,324,0.0,0.0,69,0.00,,---,0.00,VWS V14.01,2013-12-24 08:12:00,
2013-12-24 03:17:00,30.0,21.1,30.24,NW,324,0.0,0.0,69,0.00,,---,0.00,VWS V14.01,2013-12-24 08:17:00,
2013-12-24 03:22:00,29.6,21.0,30.24,NW,324,0.0,0.0,70,0.00,,---,0.00,VWS V14.01,2013-12-24 08:22:00,
2013-12-24 03:27:00,29.1,21.2,30.24,NW,324,0.0,0.0,72,0.00,,---,0.00,VWS V14.01,2013-12-24 08:27:00,
2013-12-24 03:30:00,28.9,20.7,30.24,NW,323,0.0,0.0,71,0.00,,---,0.00,VWS V14.01,2013-12-24 08:30:00,
2013-12-24 03:32:00,28.8,20.9,30.24,NW,324,0.0,0.0,72,0.00,,---,0.00,VWS V14.01,2013-12-24 08:32:00,
2013-12-24 03:37:00,28.5,20.6,30.24,NW,323,0.0,0.0,72,0.00,,---,0.00,VWS V14.01,2013-12-24 08:37:00,
2013-12-24 03:42:00,28.2,20.7,30.24,NW,323,0.0,0.0,73,0.00,,---,0.00,VWS V14.01,2013-12-24 08:42:00,
2013-12-24 03:47:00,28.1,20.6,30.23,NW,323,0.0,0.0,73,0.00,,---,0.00,VWS V14.01,2013-12-24 08:47:00,
2013-12-24 03:52:00,27.9,20.4,30.23,NW,323,0.0,0.0,73,0.00,,---,0.00,VWS V14.01,2013-12-24 08:52:00,
2013-12-24 03:57:00,27.8,20.3,30.23,NW,323,0.0,0.0,73,0.00,,---,0.00,VWS V14.01,2013-12-24 08:57:00,
2013-12-24 04:00:00,27.7,20.5,30.23,North,3,0.0,0.0,74,0.00,,---,0.00,VWS V14.01,2013-12-24 09:00:00,
2013-12-24 04:02:00,27.6,21.0,30.23,NNE,19,0.0,1.0,76,0.00,,---,0.00,VWS V14.01,2013-12-24 09:02:00,
2013-12-24 04:07:00,27.6,21.0,30.23,NNE,18,0.0,1.0,76,0.00,,---,0.00,VWS V14.01,2013-12-24 09:07:00,
2013-12-24 04:12:00,27.9,21.0,30.23,NNE,18,0.0,1.0,75,0.00,,---,0.00,VWS V14.01,2013-12-24 09:12:00,
2013-12-24 04:17:00,27.9,20.7,30.23,NNE,18,0.0,1.0,74,0.00,,---,0.00,VWS V14.01,2013-12-24 09:17:00,
2013-12-24 04:22:00,27.8,20.3,30.22,NNE,18,0.0,1.0,73,0.00,,---,0.00,VWS V14.01,2013-12-24 09:22:00,
2013-12-24 04:27:00,28.0,20.5,30.22,NNE,13,0.0,1.0,73,0.00,,---,0.00,VWS V14.01,2013-12-24 09:27:00,
2013-12-24 04:30:00,28.1,20.2,30.22,NNE,13,0.0,1.0,72,0.00,,---,0.00,VWS V14.01,2013-12-24 09:30:00,
2013-12-24 04:32:00,28.0,20.2,30.22,NNE,13,0.0,0.0,72,0.00,,---,0.00,VWS V14.01,2013-12-24 09:32:00,
2013-12-24 04:37:00,27.8,20.0,30.22,NNE,13,0.0,0.0,72,0.00,,---,0.00,VWS V14.01,2013-12-24 09:37:00,
2013-12-24 04:42:00,27.3,19.5,30.21,NNE,13,0.0,0.0,72,0.00,,---,0.00,VWS V14.01,2013-12-24 09:42:00,
2013-12-24 04:47:00,26.8,19.3,30.21,NNE,13,0.0,0.0,73,0.00,,---,0.00,VWS V14.01,2013-12-24 09:47:00,
2013-12-24 04:52:00,26.7,19.9,30.21,NNE,13,0.0,0.0,75,0.00,,---,0.00,VWS V14.01,2013-12-24 09:52:00,
2013-12-24 04:57:00,27.0,20.1,30.21,NNE,13,0.0,0.0,75,0.00,,---,0.00,VWS V14.01,2013-12-24 09:57:00,
2013-12-24 05:00:00,27.1,20.5,30.21,NNE,13,0.0,0.0,76,0.00,,---,0.00,VWS V14.01,2013-12-24 10:00:00,
2013-12-24 05:02:00,27.0,20.1,30.21,NNE,13,0.0,0.0,75,0.00,,---,0.00,VWS V14.01,2013-12-24 10:02:00,
2013-12-24 05:07:00,27.3,20.1,30.21,NNE,13,0.0,0.0,74,0.00,,---,0.00,VWS V14.01,2013-12-24 10:07:00,
2013-12-24 05:12:00,27.5,20.6,30.22,NNE,13,0.0,0.0,75,0.00,,---,0.00,VWS V14.01,2013-12-24 10:12:00,
2013-12-24 05:17:00,27.5,20.9,30.22,NNE,13,0.0,0.0,76,0.00,,---,0.00,VWS V14.01,2013-12-24 10:17:00,
2013-12-24 05:22:00,27.6,21.6,30.22,NNE,13,0.0,1.0,78,0.00,,---,0.00,VWS V14.01,2013-12-24 10:22:00,
2013-12-24 05:27:00,27.6,22.0,30.22,NW,316,0.0,1.0,79,0.00,,---,0.00,VWS V14.01,2013-12-24 10:27:00,
2013-12-24 05:30:00,27.5,22.5,30.22,WNW,297,0.0,1.0,81,0.00,,---,0.00,VWS V14.01,2013-12-24 10:30:00,
2013-12-24 05:32:00,27.4,22.4,30.22,WNW,300,0.0,1.0,81,0.00,,---,0.00,VWS V14.01,2013-12-24 10:32:00,
2013-12-24 05:37:00,27.4,22.4,30.22,WNW,300,0.0,1.0,81,0.00,,---,0.00,VWS V14.01,2013-12-24 10:37:00,
2013-12-24 05:42:00,27.4,22.4,30.22,WNW,300,0.0,1.0,81,0.00,,---,0.00,VWS V14.01,2013-12-24 10:42:00,
2013-12-24 05:47:00,27.5,22.7,30.22,WNW,300,0.0,1.0,82,0.00,,---,0.00,VWS V14.01,2013-12-24 10:47:00,
2013-12-24 05:52:00,27.6,22.5,30.22,WNW,300,0.0,1.0,81,0.00,,---,0.00,VWS V14.01,2013-12-24 10:52:00,
2013-12-24 05:57:00,27.7,22.9,30.22,WNW,300,0.0,1.0,82,0.00,,---,0.00,VWS V14.01,2013-12-24 10:57:00,
2013-12-24 06:00:00,27.7,22.9,30.22,WNW,300,0.0,1.0,82,0.00,,---,0.00,VWS V14.01,2013-12-24 11:00:00,
2013-12-24 06:02:00,27.7,23.2,30.22,WNW,300,0.0,0.0,83,0.00,,---,0.00,VWS V14.01,2013-12-24 11:02:00,
2013-12-24 06:07:00,27.8,23.3,30.22,WNW,300,0.0,0.0,83,0.00,,---,0.00,VWS V14.01,2013-12-24 11:07:00,
2013-12-24 06:12:00,28.0,23.5,30.22,West,277,0.0,0.0,83,0.00,,---,0.00,VWS V14.01,2013-12-24 11:12:00,
2013-12-24 06:17:00,28.1,23.9,30.22,West,277,0.0,0.0,84,0.00,,---,0.00,VWS V14.01,2013-12-24 11:17:00,
2013-12-24 06:22:00,28.2,23.7,30.22,West,277,0.0,0.0,83,0.00,,---,0.00,VWS V14.01,2013-12-24 11:22:00,
2013-12-24 06:27:00,28.4,23.3,30.22,SW,216,0.0,0.0,81,0.00,,---,0.00,VWS V14.01,2013-12-24 11:27:00,
2013-12-24 06:30:00,28.5,23.1,30.22,SW,216,0.0,0.0,80,0.00,,---,0.00,VWS V14.01,2013-12-24 11:30:00,
2013-12-24 06:32:00,28.6,23.2,30.22,SW,216,0.0,0.0,80,0.00,,---,0.00,VWS V14.01,2013-12-24 11:32:00,
2013-12-24 06:37:00,28.6,24.1,30.22,West,274,0.0,0.0,83,0.00,,---,0.00,VWS V14.01,2013-12-24 11:37:00,
2013-12-24 06:42:00,28.3,23.8,30.22,West,274,0.0,0.0,83,0.00,,---,0.00,VWS V14.01,2013-12-24 11:42:00,
2013-12-24 06:47:00,28.2,23.1,30.22,West,274,0.0,0.0,81,0.00,,---,0.00,VWS V14.01,2013-12-24 11:47:00,
2013-12-24 06:52:00,28.1,23.0,30.22,West,274,0.0,1.0,81,0.00,,---,0.00,VWS V14.01,2013-12-24 11:52:00,
2013-12-24 06:57:00,28.4,22.7,30.22,SW,221,0.0,1.0,79,0.00,,---,0.00,VWS V14.01,2013-12-24 11:57:00,
2013-12-24 07:00:00,28.5,22.8,30.22,SW,221,0.0,1.0,79,0.00,,---,0.00,VWS V14.01,2013-12-24 12:00:00,
2013-12-24 07:02:00,28.5,22.5,30.22,West,273,0.0,1.0,78,0.00,,---,0.00,VWS V14.01,2013-12-24 12:02:00,
2013-12-24 07:07:00,28.6,22.3,30.22,West,273,0.0,1.0,77,0.00,,---,0.00,VWS V14.01,2013-12-24 12:07:00,
2013-12-24 07:12:00,28.8,22.2,30.22,West,274,0.0,1.0,76,0.00,,---,0.00,VWS V14.01,2013-12-24 12:12:00,
2013-12-24 07:17:00,28.7,22.1,30.21,West,274,0.0,1.0,76,0.00,,---,0.00,VWS V14.01,2013-12-24 12:17:00,
2013-12-24 07:22:00,28.6,21.7,30.22,West,274,0.0,1.0,75,0.00,,---,0.00,VWS V14.01,2013-12-24 12:22:00,
2013-12-24 07:27:00,28.7,22.1,30.22,West,275,0.0,1.0,76,0.00,,---,0.00,VWS V14.01,2013-12-24 12:27:00,
2013-12-24 07:30:00,28.8,21.6,30.22,SW,224,0.0,1.0,74,0.00,,---,0.00,VWS V14.01,2013-12-24 12:30:00,
2013-12-24 07:32:00,28.9,22.0,30.22,SW,224,0.0,0.0,75,0.00,,---,0.00,VWS V14.01,2013-12-24 12:32:00,
2013-12-24 07:37:00,29.0,21.8,30.22,SW,224,0.0,1.0,74,0.00,,---,0.00,VWS V14.01,2013-12-24 12:37:00,
2013-12-24 07:42:00,29.0,21.8,30.22,SW,224,0.0,1.0,74,0.00,,---,0.00,VWS V14.01,2013-12-24 12:42:00,
2013-12-24 07:47:00,28.9,21.4,30.22,SW,224,0.0,1.0,73,0.00,,---,0.00,VWS V14.01,2013-12-24 12:47:00,
2013-12-24 07:52:00,28.9,21.0,30.22,West,266,0.0,1.0,72,0.00,,---,0.00,VWS V14.01,2013-12-24 12:52:00,
2013-12-24 07:57:00,29.0,21.1,30.22,SSW,205,0.0,1.0,72,0.00,,---,0.00,VWS V14.01,2013-12-24 12:57:00,
2013-12-24 08:00:00,29.1,21.2,30.22,SSW,209,0.0,1.0,72,0.00,,---,0.00,VWS V14.01,2013-12-24 13:00:00,
2013-12-24 08:02:00,29.1,21.2,30.22,WSW,238,0.0,0.0,72,0.00,,---,0.00,VWS V14.01,2013-12-24 13:02:00,
2013-12-24 08:07:00,29.2,21.3,30.22,WSW,240,0.0,1.0,72,0.00,,---,0.00,VWS V14.01,2013-12-24 13:07:00,
2013-12-24 08:12:00,29.2,21.0,30.22,SSE,165,0.0,1.0,71,0.00,,---,0.00,VWS V14.01,2013-12-24 13:12:00,
2013-12-24 08:17:00,29.4,20.8,30.22,WNW,288,0.0,1.0,70,0.00,,---,0.00,VWS V14.01,2013-12-24 13:17:00,
2013-12-24 08:22:00,29.7,20.5,30.22,WNW,298,1.0,3.0,68,0.00,,---,0.00,VWS V14.01,2013-12-24 13:22:00,
2013-12-24 08:27:00,30.0,20.4,30.22,NNE,13,1.0,4.0,67,0.00,,---,0.00,VWS V14.01,2013-12-24 13:27:00,
2013-12-24 08:30:00,30.2,20.2,30.22,NW,316,1.0,4.0,66,0.00,,---,0.00,VWS V14.01,2013-12-24 13:30:00,
2013-12-24 08:32:00,30.2,20.2,30.22,NW,308,2.0,3.0,66,0.00,,---,0.00,VWS V14.01,2013-12-24 13:32:00,
2013-12-24 08:37:00,30.4,20.1,30.22,NW,307,2.0,4.0,65,0.00,,---,0.00,VWS V14.01,2013-12-24 13:37:00,
2013-12-24 08:42:00,30.6,19.9,30.23,East,83,0.0,5.0,64,0.00,,---,0.00,VWS V14.01,2013-12-24 13:42:00,
2013-12-24 08:47:00,30.7,20.3,30.23,SW,221,2.0,5.0,65,0.00,,---,0.00,VWS V14.01,2013-12-24 13:47:00,
2013-12-24 08:52:00,30.8,19.7,30.23,NW,316,3.0,5.0,63,0.00,,---,0.00,VWS V14.01,2013-12-24 13:52:00,
2013-12-24 08:57:00,30.9,20.2,30.23,SSW,192,0.0,5.0,64,0.00,,---,0.00,VWS V14.01,2013-12-24 13:57:00,
2013-12-24 09:00:00,30.8,20.1,30.23,West,272,1.0,5.0,64,0.00,,---,0.00,VWS V14.01,2013-12-24 14:00:00,
2013-12-24 09:02:00,30.8,20.4,30.23,SW,233,0.0,2.0,65,0.00,,---,0.00,VWS V14.01,2013-12-24 14:02:00,
2013-12-24 09:07:00,30.8,20.4,30.23,NNW,337,4.0,4.0,65,0.00,,---,0.00,VWS V14.01,2013-12-24 14:07:00,
2013-12-24 09:12:00,30.9,19.8,30.23,West,268,0.0,7.0,63,0.00,,---,0.00,VWS V14.01,2013-12-24 14:12:00,
2013-12-24 09:17:00,31.1,19.6,30.24,West,280,1.0,7.0,62,0.00,,---,0.00,VWS V14.01,2013-12-24 14:17:00,
2013-12-24 09:22:00,31.2,19.3,30.24,SW,219,2.0,7.0,61,0.00,,---,0.00,VWS V14.01,2013-12-24 14:22:00,
2013-12-24 09:27:00,31.4,19.5,30.24,SSE,166,1.0,7.0,61,0.00,,---,0.00,VWS V14.01,2013-12-24 14:27:00,
2013-12-24 09:30:00,31.4,19.1,30.24,SSE,158,0.0,7.0,60,0.00,,---,0.00,VWS V14.01,2013-12-24 14:30:00,
2013-12-24 09:32:00,31.5,19.2,30.24,WSW,243,0.0,6.0,60,0.00,,---,0.00,VWS V14.01,2013-12-24 14:32:00,
2013-12-24 09:37:00,31.6,19.3,30.24,SW,227,1.0,6.0,60,0.00,,---,0.00,VWS V14.01,2013-12-24 14:37:00,
2013-12-24 09:42:00,31.7,19.4,30.24,SW,222,0.0,6.0,60,0.00,,---,0.00,VWS V14.01,2013-12-24 14:42:00,
2013-12-24 09:47:00,31.8,18.7,30.23,WNW,283,0.0,6.0,58,0.00,,---,0.00,VWS V14.01,2013-12-24 14:47:00,
2013-12-24 09:52:00,32.0,18.5,30.23,NW,304,0.0,6.0,57,0.00,,---,0.00,VWS V14.01,2013-12-24 14:52:00,
2013-12-24 09:57:00,32.3,18.8,30.23,WSW,239,0.0,6.0,57,0.00,,---,0.00,VWS V14.01,2013-12-24 14:57:00,
2013-12-24 10:00:00,32.5,19.4,30.24,SW,221,0.0,6.0,58,0.00,,---,0.00,VWS V14.01,2013-12-24 15:00:00,
2013-12-24 10:02:00,32.7,19.2,30.24,SE,134,1.0,2.0,57,0.00,,---,0.00,VWS V14.01,2013-12-24 15:02:00,
2013-12-24 10:07:00,32.9,18.9,30.23,South,185,1.0,3.0,56,0.00,,---,0.00,VWS V14.01,2013-12-24 15:07:00,
2013-12-24 10:12:00,33.1,19.1,30.23,WNW,283,1.0,3.0,56,0.00,,---,0.00,VWS V14.01,2013-12-24 15:12:00,
2013-12-24 10:17:00,33.2,18.8,30.23,West,266,0.0,3.0,55,0.00,,---,0.00,VWS V14.01,2013-12-24 15:17:00,
2013-12-24 10:22:00,33.1,19.5,30.23,SW,232,2.0,5.0,57,0.00,,---,0.00,VWS V14.01,2013-12-24 15:22:00,
2013-12-24 10:27:00,33.1,19.5,30.23,SSW,212,0.0,5.0,57,0.00,,---,0.00,VWS V14.01,2013-12-24 15:27:00,
2013-12-24 10:30:00,33.1,19.1,30.23,West,261,1.0,5.0,56,0.00,,---,0.00,VWS V14.01,2013-12-24 15:30:00,
2013-12-24 10:32:00,33.1,19.1,30.23,SSW,194,0.0,1.0,56,0.00,,---,0.00,VWS V14.01,2013-12-24 15:32:00,
2013-12-24 10:37:00,32.9,19.4,30.23,WNW,291,0.0,3.0,57,0.00,,---,0.00,VWS V14.01,2013-12-24 15:37:00,
2013-12-24 10:42:00,32.8,18.8,30.23,SSW,211,0.0,5.0,56,0.00,,---,0.00,VWS V14.01,2013-12-24 15:42:00,
2013-12-24 10:47:00,32.9,19.8,30.23,SSW,201,0.0,5.0,58,0.00,,---,0.00,VWS V14.01,2013-12-24 15:47:00,
2013-12-24 10:52:00,33.1,19.5,30.23,SW,221,0.0,5.0,57,0.00,,---,0.00,VWS V14.01,2013-12-24 15:52:00,
2013-12-24 10:57:00,33.2,19.6,30.23,NW,318,6.0,6.0,57,0.00,,---,0.00,VWS V14.01,2013-12-24 15:57:00,
2013-12-24 11:00:00,33.1,19.1,30.22,WNW,295,0.0,7.0,56,0.00,,---,0.00,VWS V14.01,2013-12-24 16:00:00,
2013-12-24 11:02:00,33.1,19.5,30.22,SE,146,0.0,2.0,57,0.00,,---,0.00,VWS V14.01,2013-12-24 16:02:00,
2013-12-24 11:07:00,33.1,19.5,30.22,WNW,295,0.0,5.0,57,0.00,,---,0.00,VWS V14.01,2013-12-24 16:07:00,
2013-12-24 11:12:00,33.2,20.0,30.22,WSW,243,1.0,5.0,58,0.00,,---,0.00,VWS V14.01,2013-12-24 16:12:00,
2013-12-24 11:17:00,33.3,19.3,30.21,NW,309,0.0,5.0,56,0.00,,---,0.00,VWS V14.01,2013-12-24 16:17:00,
2013-12-24 11:22:00,33.3,20.5,30.21,NNW,336,0.0,5.0,59,0.00,,---,0.00,VWS V14.01,2013-12-24 16:22:00,
2013-12-24 11:27:00,33.6,21.2,30.21,North,359,0.0,5.0,60,0.00,,---,0.00,VWS V14.01,2013-12-24 16:27:00,
2013-12-24 11:30:00,33.6,20.4,30.21,SSE,147,3.0,7.0,58,0.00,,---,0.00,VWS V14.01,2013-12-24 16:30:00,
2013-12-24 11:32:00,33.6,20.8,30.21,West,265,1.0,3.0,59,0.00,,---,0.00,VWS V14.01,2013-12-24 16:32:00,
2013-12-24 11:37:00,33.6,20.4,30.21,North,5,0.0,3.0,58,0.00,,---,0.00,VWS V14.01,2013-12-24 16:37:00,
2013-12-24 11:42:00,33.6,20.4,30.21,SW,236,1.0,4.0,58,0.00,,---,0.00,VWS V14.01,2013-12-24 16:42:00,
2013-12-24 11:47:00,33.7,20.5,30.20,WNW,297,0.0,4.0,58,0.00,,---,0.00,VWS V14.01,2013-12-24 16:47:00,
2013-12-24 11:52:00,34.4,20.3,30.20,WSW,245,0.0,4.0,56,0.00,,---,0.00,VWS V14.01,2013-12-24 16:52:00,
2013-12-24 11:57:00,34.8,22.0,30.20,NW,316,1.0,4.0,59,0.00,,---,0.00,VWS V14.01,2013-12-24 16:57:00,
2013-12-24 12:00:00,34.7,20.6,30.20,SW,225,0.0,4.0,56,0.00,,---,0.00,VWS V14.01,2013-12-24 17:00:00,
2013-12-24 12:02:00,34.5,21.3,30.20,NW,312,1.0,3.0,58,0.00,,---,0.00,VWS V14.01,2013-12-24 17:02:00,
2013-12-24 12:07:00,34.1,20.5,30.19,NNW,330,0.0,4.0,57,0.00,,---,0.00,VWS V14.01,2013-12-24 17:07:00,
2013-12-24 12:12:00,34.0,20.8,30.19,WNW,283,0.0,4.0,58,0.00,,---,0.00,VWS V14.01,2013-12-24 17:12:00,
2013-12-24 12:17:00,34.2,21.4,30.19,WNW,299,0.0,4.0,59,0.00,,---,0.00,VWS V14.01,2013-12-24 17:17:00,
2013-12-24 12:22:00,34.2,21.0,30.19,West,279,1.0,7.0,58,0.00,,---,0.00,VWS V14.01,2013-12-24 17:22:00,
2013-12-24 12:27:00,33.8,19.8,30.19,NNE,18,4.0,8.0,56,0.00,,---,0.00,VWS V14.01,2013-12-24 17:27:00,
2013-12-24 12:30:00,33.3,21.3,30.19,SW,220,1.0,8.0,61,0.00,,---,0.00,VWS V14.01,2013-12-24 17:30:00,
2013-12-24 12:32:00,33.0,21.8,30.19,SW,220,1.0,6.0,63,0.00,,---,0.00,VWS V14.01,2013-12-24 17:32:00,
2013-12-24 12:37:00,32.5,24.8,30.19,SSW,200,1.0,6.0,73,0.00,,---,0.00,VWS V14.01,2013-12-24 17:37:00,
2013-12-24 12:42:00,32.2,25.2,30.19,SSW,208,3.0,6.0,75,0.00,,---,0.00,VWS V14.01,2013-12-24 17:42:00,
2013-12-24 12:47:00,32.1,25.1,30.19,WSW,248,3.0,8.0,75,0.00,,---,0.00,VWS V14.01,2013-12-24 17:47:00,
2013-12-24 12:52:00,32.1,25.1,30.19,SSW,194,1.0,8.0,75,0.00,,---,0.00,VWS V14.01,2013-12-24 17:52:00,
2013-12-24 12:57:00,32.3,25.3,30.19,NW,309,0.0,8.0,75,0.00,,---,0.00,VWS V14.01,2013-12-24 17:57:00,
2013-12-24 13:00:00,32.4,25.4,30.18,SSW,211,3.0,8.0,75,0.00,,---,0.00,VWS V14.01,2013-12-24 18:00:00,
2013-12-24 13:02:00,32.6,25.2,30.18,SW,224,1.0,8.0,74,0.00,,---,0.00,VWS V14.01,2013-12-24 18:02:00,
2013-12-24 13:07:00,32.8,25.1,30.18,SSW,201,8.0,10.0,73,0.00,,---,0.00,VWS V14.01,2013-12-24 18:07:00,
2013-12-24 13:12:00,33.1,25.1,30.18,SW,225,4.0,10.0,72,0.00,,---,0.00,VWS V14.01,2013-12-24 18:12:00,
2013-12-24 13:17:00,33.2,24.8,30.18,NNW,341,1.0,10.0,71,0.00,,---,0.00,VWS V14.01,2013-12-24 18:17:00,
2013-12-24 13:22:00,32.4,26.3,30.19,NNW,332,4.0,10.0,78,0.00,,---,0.00,VWS V14.01,2013-12-24 18:22:00,
2013-12-24 13:27:00,31.0,26.5,30.19,WNW,285,4.0,10.0,83,0.00,,---,0.00,VWS V14.01,2013-12-24 18:27:00,
2013-12-24 13:30:00,30.6,26.1,30.19,NNW,340,3.0,10.0,83,0.00,,---,0.00,VWS V14.01,2013-12-24 18:30:00,
2013-12-24 13:32:00,30.6,25.8,30.19,NW,321,4.0,4.0,82,0.00,,---,0.00,VWS V14.01,2013-12-24 18:32:00,
2013-12-24 13:37:00,30.7,25.6,30.19,SW,223,1.0,8.0,81,0.00,,---,0.00,VWS V14.01,2013-12-24 18:37:00,
2013-12-24 13:42:00,31.3,25.6,30.19,West,267,4.0,8.0,79,0.00,,---,0.00,VWS V14.01,2013-12-24 18:42:00,
2013-12-24 13:47:00,31.8,25.7,30.19,WNW,291,0.0,8.0,78,0.00,,---,0.00,VWS V14.01,2013-12-24 18:47:00,
2013-12-24 13:52:00,32.1,24.8,30.20,West,272,0.0,8.0,74,0.00,,---,0.00,VWS V14.01,2013-12-24 18:52:00,
2013-12-24 13:57:00,32.5,25.1,30.20,South,185,0.0,8.0,74,0.00,,---,0.00,VWS V14.01,2013-12-24 18:57:00,
2013-12-24 14:00:00,32.6,24.6,30.20,NNW,347,0.0,8.0,72,0.00,,---,0.00,VWS V14.01,2013-12-24 19:00:00,
2013-12-24 14:02:00,32.7,25.0,30.20,SSW,212,0.0,1.0,73,0.00,,---,0.00,VWS V14.01,2013-12-24 19:02:00,
2013-12-24 14:07:00,32.5,24.2,30.20,NNW,330,1.0,6.0,71,0.00,,---,0.00,VWS V14.01,2013-12-24 19:07:00,
2013-12-24 14:12:00,32.6,24.2,30.20,NE,34,2.0,6.0,71,0.00,,---,0.00,VWS V14.01,2013-12-24 19:12:00,
2013-12-24 14:17:00,32.5,23.8,30.20,NW,322,1.0,10.0,70,0.00,,---,0.00,VWS V14.01,2013-12-24 19:17:00,
2013-12-24 14:22:00,32.4,23.7,30.20,SW,214,0.0,10.0,70,0.00,,---,0.00,VWS V14.01,2013-12-24 19:22:00,
2013-12-24 14:27:00,32.4,23.4,30.20,NW,325,1.0,10.0,69,0.00,,---,0.00,VWS V14.01,2013-12-24 19:27:00,
2013-12-24 14:30:00,32.5,22.8,30.20,NNW,335,2.0,10.0,67,0.00,,---,0.00,VWS V14.01,2013-12-24 19:30:00,
2013-12-24 14:32:00,32.6,22.9,30.20,SSW,210,1.0,2.0,67,0.00,,---,0.00,VWS V14.01,2013-12-24 19:32:00,
2013-12-24 14:37:00,32.8,22.0,30.20,SW,216,1.0,4.0,64,0.00,,---,0.00,VWS V14.01,2013-12-24 19:37:00,
2013-12-24 14:42:00,32.9,22.1,30.20,WNW,297,0.0,4.0,64,0.00,,---,0.00,VWS V14.01,2013-12-24 19:42:00,
2013-12-24 14:47:00,32.8,20.9,30.20,SE,139,2.0,5.0,61,0.00,,---,0.00,VWS V14.01,2013-12-24 19:47:00,
2013-12-24 14:52:00,32.6,21.0,30.21,SW,221,2.0,7.0,62,0.00,,---,0.00,VWS V14.01,2013-12-24 19:52:00,
2013-12-24 14:57:00,32.0,23.3,30.22,NW,309,4.0,9.0,70,0.00,,---,0.00,VWS V14.01,2013-12-24 19:57:00,
2013-12-24 15:00:00,30.8,24.5,30.23,NW,324,3.0,9.0,77,0.00,,---,0.00,VWS V14.01,2013-12-24 20:00:00,
2013-12-24 15:02:00,30.0,25.2,30.23,NNW,338,4.0,11.0,82,0.00,,---,0.00,VWS V14.01,2013-12-24 20:02:00,
2013-12-24 15:07:00,27.9,24.5,30.24,NNW,329,4.0,15.0,87,0.00,,---,0.00,VWS V14.01,2013-12-24 20:07:00,
2013-12-24 15:12:00,27.0,24.2,30.24,NW,309,3.0,15.0,89,0.00,,---,0.00,VWS V14.01,2013-12-24 20:12:00,
2013-12-24 15:17:00,26.8,22.9,30.24,WNW,294,2.0,15.0,85,0.00,,---,0.00,VWS V14.01,2013-12-24 20:17:00,
2013-12-24 15:22:00,27.0,23.1,30.24,ESE,115,0.0,15.0,85,0.00,,---,0.00,VWS V14.01,2013-12-24 20:22:00,
2013-12-24 15:27:00,27.2,23.0,30.24,WNW,302,6.0,15.0,84,0.00,,---,0.00,VWS V14.01,2013-12-24 20:27:00,
2013-12-24 15:30:00,27.3,23.1,30.25,WNW,286,0.0,15.0,84,0.00,,---,0.00,VWS V14.01,2013-12-24 20:30:00,
2013-12-24 15:32:00,27.4,23.2,30.25,NW,310,2.0,4.0,84,0.00,,---,0.00,VWS V14.01,2013-12-24 20:32:00,
2013-12-24 15:37:00,27.7,23.2,30.25,East,89,2.0,4.0,83,0.00,,---,0.00,VWS V14.01,2013-12-24 20:37:00,
2013-12-24 15:42:00,27.8,22.7,30.25,West,281,2.0,4.0,81,0.00,,---,0.00,VWS V14.01,2013-12-24 20:42:00,
2013-12-24 15:47:00,28.0,22.6,30.25,West,259,1.0,7.0,80,0.00,,---,0.00,VWS V14.01,2013-12-24 20:47:00,
2013-12-24 15:52:00,28.1,22.1,30.26,NW,318,2.0,7.0,78,0.00,,---,0.00,VWS V14.01,2013-12-24 20:52:00,
2013-12-24 15:57:00,28.1,20.6,30.26,NW,315,4.0,9.0,73,0.00,,---,0.00,VWS V14.01,2013-12-24 20:57:00,
2013-12-24 16:00:00,28.1,20.2,30.26,NNW,329,2.0,9.0,72,0.00,,---,0.00,VWS V14.01,2013-12-24 21:00:00,
2013-12-24 16:02:00,28.2,20.4,30.26,North,351,0.0,10.0,72,0.00,,---,0.00,VWS V14.01,2013-12-24 21:02:00,
2013-12-24 16:07:00,28.1,19.9,30.26,NW,320,2.0,10.0,71,0.00,,---,0.00,VWS V14.01,2013-12-24 21:07:00,
2013-12-24 16:12:00,28.1,19.9,30.27,NW,326,0.0,10.0,71,0.00,,---,0.00,VWS V14.01,2013-12-24 21:12:00,
2013-12-24 16:17:00,28.0,19.5,30.27,East,84,1.0,10.0,70,0.00,,---,0.00,VWS V14.01,2013-12-24 21:17:00,
2013-12-24 16:22:00,28.0,19.5,30.27,NNW,330,3.0,10.0,70,0.00,,---,0.00,VWS V14.01,2013-12-24 21:22:00,
2013-12-24 16:27:00,27.9,19.4,30.27,NW,324,4.0,10.0,70,0.00,,---,0.00,VWS V14.01,2013-12-24 21:27:00,
2013-12-24 16:30:00,27.8,18.3,30.28,NNW,348,8.0,10.0,67,0.00,,---,0.00,VWS V14.01,2013-12-24 21:30:00,
2013-12-24 16:32:00,27.7,17.8,30.28,WNW,294,5.0,11.0,66,0.00,,---,0.00,VWS V14.01,2013-12-24 21:32:00,
2013-12-24 16:37:00,27.5,16.9,30.28,NW,320,5.0,15.0,64,0.00,,---,0.00,VWS V14.01,2013-12-24 21:37:00,
2013-12-24 16:42:00,27.3,17.1,30.28,NW,326,4.0,15.0,65,0.00,,---,0.00,VWS V14.01,2013-12-24 21:42:00,
2013-12-24 16:47:00,27.1,16.6,30.29,NW,325,3.0,15.0,64,0.00,,---,0.00,VWS V14.01,2013-12-24 21:47:00,
2013-12-24 16:52:00,26.9,17.1,30.29,NE,37,1.0,15.0,66,0.00,,---,0.00,VWS V14.01,2013-12-24 21:52:00,
2013-12-24 16:57:00,26.7,16.2,30.29,WSW,243,5.0,15.0,64,0.00,,---,0.00,VWS V14.01,2013-12-24 21:57:00,
2013-12-24 17:00:00,26.6,15.7,30.30,SSW,211,3.0,15.0,63,0.00,,---,0.00,VWS V14.01,2013-12-24 22:00:00,
2013-12-24 17:02:00,26.6,16.1,30.30,NNE,13,5.0,10.0,64,0.00,,---,0.00,VWS V14.01,2013-12-24 22:02:00,
2013-12-24 17:07:00,26.5,16.3,30.30,NW,305,6.0,13.0,65,0.00,,---,0.00,VWS V14.01,2013-12-24 22:07:00,
2013-12-24 17:12:00,26.3,15.1,30.31,NNW,328,1.0,13.0,62,0.00,,---,0.00,VWS V14.01,2013-12-24 22:12:00,
2013-12-24 17:17:00,26.1,14.9,30.31,ESE,120,2.0,13.0,62,0.00,,---,0.00,VWS V14.01,2013-12-24 22:17:00,
2013-12-24 17:22:00,25.9,13.9,30.32,NNW,331,7.0,13.0,60,0.00,,---,0.00,VWS V14.01,2013-12-24 22:22:00,
2013-12-24 17:27:00,25.8,12.7,30.32,WSW,245,1.0,13.0,57,0.00,,---,0.00,VWS V14.01,2013-12-24 22:27:00,
2013-12-24 17:30:00,25.7,13.0,30.32,East,94,0.0,13.0,58,0.00,,---,0.00,VWS V14.01,2013-12-24 22:30:00,
2013-12-24 17:32:00,25.6,13.3,30.32,West,259,1.0,6.0,59,0.00,,---,0.00,VWS V14.01,2013-12-24 22:32:00,
2013-12-24 17:37:00,25.4,13.8,30.33,NNW,344,1.0,6.0,61,0.00,,---,0.00,VWS V14.01,2013-12-24 22:37:00,
2013-12-24 17:42:00,25.3,13.8,30.33,NW,326,3.0,9.0,61,0.00,,---,0.00,VWS V14.01,2013-12-24 22:42:00,
2013-12-24 17:47:00,25.2,13.3,30.33,NW,323,6.0,14.0,60,0.00,,---,0.00,VWS V14.01,2013-12-24 22:47:00,
2013-12-24 17:52:00,25.2,12.1,30.34,NNW,340,1.0,14.0,57,0.00,,---,0.00,VWS V14.01,2013-12-24 22:52:00,
2013-12-24 17:57:00,25.3,12.6,30.34,WSW,254,3.0,14.0,58,0.00,,---,0.00,VWS V14.01,2013-12-24 22:57:00,
2013-12-24 18:00:00,25.2,12.5,30.34,NW,309,2.0,14.0,58,0.00,,---,0.00,VWS V14.01,2013-12-24 23:00:00,
2013-12-24 18:02:00,25.1,13.2,30.34,West,277,6.0,6.0,60,0.00,,---,0.00,VWS V14.01,2013-12-24 23:02:00,
2013-12-24 18:07:00,24.8,13.6,30.35,SSE,161,2.0,6.0,62,0.00,,---,0.00,VWS V14.01,2013-12-24 23:07:00,
2013-12-24 18:12:00,24.6,13.8,30.35,WNW,298,2.0,7.0,63,0.00,,---,0.00,VWS V14.01,2013-12-24 23:12:00,
2013-12-24 18:17:00,24.3,13.9,30.35,East,85,1.0,8.0,64,0.00,,---,0.00,VWS V14.01,2013-12-24 23:17:00,
2013-12-24 18:22:00,24.2,13.4,30.35,ESE,122,0.0,8.0,63,0.00,,---,0.00,VWS V14.01,2013-12-24 23:22:00,
2013-12-24 18:27:00,24.0,13.2,30.35,NW,316,0.0,8.0,63,0.00,,---,0.00,VWS V14.01,2013-12-24 23:27:00,
2013-12-24 18:30:00,23.9,13.1,30.36,WNW,303,0.0,8.0,63,0.00,,---,0.00,VWS V14.01,2013-12-24 23:30:00,
2013-12-24 18:32:00,23.8,13.1,30.36,WNW,283,0.0,3.0,63,0.00,,---,0.00,VWS V14.01,2013-12-24 23:32:00,
2013-12-24 18:37:00,23.6,12.5,30.36,SE,137,0.0,5.0,62,0.00,,---,0.00,VWS V14.01,2013-12-24 23:37:00,
2013-12-24 18:42:00,23.5,12.4,30.36,West,268,0.0,5.0,62,0.00,,---,0.00,VWS V14.01,2013-12-24 23:42:00,
2013-12-24 18:47:00,23.4,12.7,30.37,West,273,0.0,5.0,63,0.00,,---,0.00,VWS V14.01,2013-12-24 23:47:00,
2013-12-24 18:52:00,23.4,12.3,30.37,NW,323,4.0,9.0,62,0.00,,---,0.00,VWS V14.01,2013-12-24 23:52:00,
2013-12-24 18:57:00,23.4,12.3,30.37,East,83,1.0,9.0,62,0.00,,---,0.00,VWS V14.01,2013-12-24 23:57:00,
2013-12-24 19:00:00,23.3,12.6,30.38,ESE,103,0.0,9.0,63,0.00,,---,0.00,VWS V14.01,2013-12-25 00:00:00,
2013-12-24 19:02:00,23.2,12.1,30.38,NW,317,1.0,1.0,62,0.00,,---,0.00,VWS V14.01,2013-12-25 00:02:00,
2013-12-24 19:07:00,23.0,12.3,30.38,NW,311,0.0,2.0,63,0.00,,---,0.00,VWS V14.01,2013-12-25 00:07:00,
2013-12-24 19:12:00,22.9,12.2,30.38,NW,306,0.0,3.0,63,0.00,,---,0.00,VWS V14.01,2013-12-25 00:12:00,
2013-12-24 19:17:00,23.2,11.8,30.38,NE,56,1.0,10.0,61,0.00,,---,0.00,VWS V14.01,2013-12-25 00:17:00,
2013-12-24 19:22:00,23.3,11.5,30.39,NW,325,5.0,11.0,60,0.00,,---,0.00,VWS V14.01,2013-12-25 00:22:00,
2013-12-24 19:27:00,23.4,11.6,30.39,NNE,18,0.0,11.0,60,0.00,,---,0.00,VWS V14.01,2013-12-25 00:27:00,
2013-12-24 19:30:00,23.4,11.6,30.39,NNW,330,1.0,11.0,60,0.00,,---,0.00,VWS V14.01,2013-12-25 00:30:00,
2013-12-24 19:32:00,23.4,11.6,30.39,NW,308,1.0,3.0,60,0.00,,---,0.00,VWS V14.01,2013-12-25 00:32:00,
2013-12-24 19:37:00,23.2,11.8,30.40,NNW,344,1.0,5.0,61,0.00,,---,0.00,VWS V14.01,2013-12-25 00:37:00,
2013-12-24 19:42:00,23.1,12.0,30.40,East,84,1.0,5.0,62,0.00,,---,0.00,VWS V14.01,2013-12-25 00:42:00,
2013-12-24 19:47:00,23.3,11.9,30.40,NW,306,5.0,13.0,61,0.00,,---,0.00,VWS V14.01,2013-12-25 00:47:00,
2013-12-24 19:52:00,23.5,12.4,30.41,NNW,348,4.0,13.0,62,0.00,,---,0.00,VWS V14.01,2013-12-25 00:52:00,
2013-12-24 19:57:00,23.5,12.4,30.41,NNW,343,3.0,13.0,62,0.00,,---,0.00,VWS V14.01,2013-12-25 00:57:00,
2013-12-24 20:00:00,23.6,12.5,30.41,WNW,288,2.0,13.0,62,0.00,,---,0.00,VWS V14.01,2013-12-25 01:00:00,
2013-12-24 20:02:00,23.6,12.5,30.41,SW,221,0.0,8.0,62,0.00,,---,0.00,VWS V14.01,2013-12-25 01:02:00,
2013-12-24 20:07:00,23.6,12.9,30.41,NNW,342,12.0,12.0,63,0.00,,---,0.00,VWS V14.01,2013-12-25 01:07:00,
2013-12-24 20:12:00,23.7,12.6,30.41,NNW,332,4.0,13.0,62,0.00,,---,0.00,VWS V14.01,2013-12-25 01:12:00,
2013-12-24 20:17:00,23.6,12.9,30.41,North,2,2.0,13.0,63,0.00,,---,0.00,VWS V14.01,2013-12-25 01:17:00,
2013-12-24 20:22:00,23.6,12.9,30.41,NW,323,2.0,13.0,63,0.00,,---,0.00,VWS V14.01,2013-12-25 01:22:00,
2013-12-24 20:27:00,23.5,13.1,30.42,NNW,339,2.0,13.0,64,0.00,,---,0.00,VWS V14.01,2013-12-25 01:27:00,
2013-12-24 20:30:00,23.5,13.1,30.42,NNE,19,0.0,13.0,64,0.00,,---,0.00,VWS V14.01,2013-12-25 01:30:00,
2013-12-24 20:32:00,23.5,13.1,30.42,SW,233,2.0,6.0,64,0.00,,---,0.00,VWS V14.01,2013-12-25 01:32:00,
2013-12-24 20:37:00,23.4,13.0,30.42,NNW,344,4.0,10.0,64,0.00,,---,0.00,VWS V14.01,2013-12-25 01:37:00,
2013-12-24 20:42:00,23.3,12.9,30.42,NW,321,0.0,10.0,64,0.00,,---,0.00,VWS V14.01,2013-12-25 01:42:00,
2013-12-24 20:47:00,23.2,12.8,30.42,NW,321,0.0,10.0,64,0.00,,---,0.00,VWS V14.01,2013-12-25 01:47:00,
2013-12-24 20:52:00,23.1,12.4,30.42,NNW,339,1.0,10.0,63,0.00,,---,0.00,VWS V14.01,2013-12-25 01:52:00,
2013-12-24 20:57:00,23.0,11.2,30.42,North,358,1.0,10.0,60,0.00,,---,0.00,VWS V14.01,2013-12-25 01:57:00,
2013-12-24 21:00:00,22.9,11.1,30.42,NW,322,4.0,10.0,60,0.00,,---,0.00,VWS V14.01,2013-12-25 02:00:00,
2013-12-24 21:02:00,22.9,11.1,30.42,NNW,333,0.0,8.0,60,0.00,,---,0.00,VWS V14.01,2013-12-25 02:02:00,
2013-12-24 21:07:00,22.8,10.6,30.43,NNE,31,1.0,9.0,59,0.00,,---,0.00,VWS V14.01,2013-12-25 02:07:00,
2013-12-24 21:12:00,22.7,10.2,30.43,NNW,335,5.0,10.0,58,0.00,,---,0.00,VWS V14.01,2013-12-25 02:12:00,
2013-12-24 21:17:00,22.6,9.7,30.43,WNW,289,7.0,11.0,57,0.00,,---,0.00,VWS V14.01,2013-12-25 02:17:00,
2013-12-24 21:22:00,22.7,9.4,30.43,NW,314,2.0,15.0,56,0.00,,---,0.00,VWS V14.01,2013-12-25 02:22:00,
2013-12-24 21:27:00,22.6,9.3,30.43,ENE,57,6.0,15.0,56,0.00,,---,0.00,VWS V14.01,2013-12-25 02:27:00,
2013-12-24 21:30:00,22.6,8.9,30.44,WNW,287,1.0,15.0,55,0.00,,---,0.00,VWS V14.01,2013-12-25 02:30:00,
2013-12-24 21:32:00,22.6,8.9,30.43,NW,318,0.0,12.0,55,0.00,,---,0.00,VWS V14.01,2013-12-25 02:32:00,
2013-12-24 21:37:00,22.5,9.2,30.44,NW,316,3.0,12.0,56,0.00,,---,0.00,VWS V14.01,2013-12-25 02:37:00,
2013-12-24 21:42:00,22.5,9.2,30.44,NW,326,5.0,12.0,56,0.00,,---,0.00,VWS V14.01,2013-12-25 02:42:00,
2013-12-24 21:47:00,22.4,9.5,30.44,WNW,300,0.0,12.0,57,0.00,,---,0.00,VWS V14.01,2013-12-25 02:47:00,
2013-12-24 21:52:00,22.3,11.3,30.44,NNW,338,1.0,12.0,62,0.00,,---,0.00,VWS V14.01,2013-12-25 02:52:00,
2013-12-24 21:57:00,22.0,10.6,30.44,NNW,330,5.0,12.0,61,0.00,,---,0.00,VWS V14.01,2013-12-25 02:57:00,
2013-12-24 22:00:00,22.0,11.0,30.45,NNE,27,5.0,12.0,62,0.00,,---,0.00,VWS V14.01,2013-12-25 03:00:00,
2013-12-24 22:02:00,21.9,13.0,30.45,NNW,348,4.0,6.0,68,0.00,,---,0.00,VWS V14.01,2013-12-25 03:02:00,
2013-12-24 22:07:00,21.6,13.7,30.45,NNW,333,4.0,8.0,71,0.00,,---,0.00,VWS V14.01,2013-12-25 03:07:00,
2013-12-24 22:12:00,21.4,13.8,30.45,NW,325,1.0,8.0,72,0.00,,---,0.00,VWS V14.01,2013-12-25 03:12:00,
2013-12-24 22:17:00,21.3,13.4,30.45,North,359,2.0,8.0,71,0.00,,---,0.00,VWS V14.01,2013-12-25 03:17:00,
2013-12-24 22:22:00,21.2,13.6,30.45,NNW,333,2.0,8.0,72,0.00,,---,0.00,VWS V14.01,2013-12-25 03:22:00,
2013-12-24 22:27:00,21.1,13.5,30.45,NW,321,3.0,8.0,72,0.00,,---,0.00,VWS V14.01,2013-12-25 03:27:00,
2013-12-24 22:30:00,21.0,13.4,30.46,NNE,27,1.0,8.0,72,0.00,,---,0.00,VWS V14.01,2013-12-25 03:30:00,
2013-12-24 22:32:00,20.9,13.3,30.46,NNW,335,0.0,3.0,72,0.00,,---,0.00,VWS V14.01,2013-12-25 03:32:00,
2013-12-24 22:37:00,20.9,13.6,30.46,NW,316,1.0,3.0,73,0.00,,---,0.00,VWS V14.01,2013-12-25 03:37:00,
2013-12-24 22:42:00,20.8,13.2,30.46,NW,326,0.0,4.0,72,0.00,,---,0.00,VWS V14.01,2013-12-25 03:42:00,
2013-12-24 22:47:00,20.7,13.4,30.46,North,6,0.0,4.0,73,0.00,,---,0.00,VWS V14.01,2013-12-25 03:47:00,
2013-12-24 22:52:00,20.5,12.9,30.46,NNW,328,0.0,4.0,72,0.00,,---,0.00,VWS V14.01,2013-12-25 03:52:00,
2013-12-24 22:57:00,20.3,12.7,30.46,NNW,336,0.0,4.0,72,0.00,,---,0.00,VWS V14.01,2013-12-25 03:57:00,
2013-12-24 23:00:00,20.2,12.9,30.46,NNW,330,0.0,4.0,73,0.00,,---,0.00,VWS V14.01,2013-12-25 04:00:00,
2013-12-24 23:02:00,20.1,12.9,30.46,ESE,108,0.0,0.0,73,0.00,,---,0.00,VWS V14.01,2013-12-25 04:02:00,
2013-12-24 23:07:00,19.9,12.7,30.46,NW,314,0.0,1.0,73,0.00,,---,0.00,VWS V14.01,2013-12-25 04:07:00,
2013-12-24 23:12:00,19.7,12.8,30.46,NNW,330,0.0,1.0,74,0.00,,---,0.00,VWS V14.01,2013-12-25 04:12:00,
2013-12-24 23:17:00,19.6,12.4,30.46,NW,307,0.0,1.0,73,0.00,,---,0.00,VWS V14.01,2013-12-25 04:17:00,
2013-12-24 23:22:00,19.4,12.2,30.46,NNE,23,0.0,1.0,73,0.00,,---,0.00,VWS V14.01,2013-12-25 04:22:00,
2013-12-24 23:27:00,19.2,12.3,30.47,NE,39,0.0,1.0,74,0.00,,---,0.00,VWS V14.01,2013-12-25 04:27:00,
2013-12-24 23:30:00,19.0,11.8,30.47,NE,39,0.0,1.0,73,0.00,,---,0.00,VWS V14.01,2013-12-25 04:30:00,
2013-12-24 23:32:00,19.0,11.5,30.47,NNE,12,0.0,1.0,72,0.00,,---,0.00,VWS V14.01,2013-12-25 04:32:00,
2013-12-24 23:37:00,19.0,12.1,30.47,North,359,0.0,3.0,74,0.00,,---,0.00,VWS V14.01,2013-12-25 04:37:00,
2013-12-24 23:42:00,19.0,12.1,30.47,North,354,0.0,3.0,74,0.00,,---,0.00,VWS V14.01,2013-12-25 04:42:00,
2013-12-24 23:47:00,18.8,12.2,30.47,NW,314,0.0,3.0,75,0.00,,---,0.00,VWS V14.01,2013-12-25 04:47:00,
2013-12-24 23:52:00,18.7,12.1,30.47,NW,311,0.0,3.0,75,0.00,,---,0.00,VWS V14.01,2013-12-25 04:52:00,
2013-12-24 23:57:00,18.5,11.9,30.47,NNW,334,0.0,3.0,75,0.00,,---,0.00,VWS V14.01,2013-12-25 04:57:00,